Home   Weather   Reston   Past weeks
Flag for USA

Past Weather in Reston, Virginia, USA — Yesterday and Last 2 Weeks

Now
74 °F

Clear.


Feels Like: 72 °F
Forecast: 96 / 73 °F
Wind: No wind

Location: Washington-Dulles International Airport

Current Time: Jul 19, 2019 at 4:49:12 am

Latest Report: Jul 19, 2019 at 3:52 am


Visibility: 10 mi

Pressure: 29.91 "Hg

Humidity: 91%

Dew Point: 71 °F

Location of RestonLocation

Past Weather in Reston — Graph

°F

Reston Temperature Yesterday

Maximum temperature yesterday: 91 °F (at 5:52 pm)
Minimum temperature yesterday: 75 °F (at 12:52 am)
Average temperature yesterday: 83 °F

High & Low Weather Summary for the Past Weeks

 TemperatureHumidityPressure
High96 °F (Jul 17, 1:52 pm)97% (Jul 5, 1:52 am)30.13 "Hg (Jul 5, 1:52 am)
Low61 °F (Jul 9, 5:52 am)37% (Jul 15, 11:52 am)29.78 "Hg (Jul 12, 3:52 am)
Average79 °F72%29.96 "Hg
* Reported Jul 4 2:52 am — Jul 19 2:52 am, Reston. Weather by CustomWeather, © 2019

Note: Actual official high and low records may vary slightly from our data, if they occured in-between our weather recording intervals... More about our weather records

Advertising

Reston Weather History for the Previous 24 Hours

Scroll right to see more
 ConditionsComfort  
Time TempWeatherWind HumidityBarometerVisibility
2:52 am
Fri, Jul 19
76 °FClear.No wind88%29.91 "Hg10 mi
1:52 am75 °FClear.No wind88%29.91 "Hg10 mi
12:52 am75 °FPassing clouds.No wind90%29.90 "Hg10 mi
11:52 pm
Thu, Jul 18
76 °FClear.3 mph85%29.89 "Hg10 mi
10:52 pm79 °FClear.3 mph77%29.89 "Hg10 mi
9:52 pm79 °FPassing clouds.No wind79%29.88 "Hg10 mi
8:52 pm87 °FPassing clouds.5 mph57%29.87 "Hg10 mi
7:52 pm89 °FPassing clouds.9 mph55%29.87 "Hg10 mi
6:58 pm91 °FBroken clouds.8 mph52%29.87 "Hg10 mi
5:52 pm91 °FBroken clouds.10 mph50%29.85 "Hg10 mi
4:52 pm90 °FPartly sunny.8 mph54%29.86 "Hg10 mi
3:52 pm89 °FBroken clouds.8 mph53%29.87 "Hg10 mi
2:52 pm88 °FPartly sunny.9 mph55%29.88 "Hg10 mi
1:52 pm87 °FBroken clouds.13 mph61%29.89 "Hg10 mi
12:52 pm89 °FPartly sunny.8 mph55%29.89 "Hg10 mi
11:52 am86 °FPartly sunny.6 mph59%29.89 "Hg10 mi
10:52 am86 °FBroken clouds.9 mph61%29.89 "Hg10 mi
9:52 am85 °FPassing clouds.12 mph63%29.90 "Hg10 mi
8:52 am84 °FBroken clouds.5 mph67%29.89 "Hg10 mi
7:52 am80 °FScattered clouds.3 mph79%29.88 "Hg10 mi
6:52 am77 °FBroken clouds.No wind90%29.88 "Hg10 mi
5:52 am76 °FPartly cloudy.No wind91%29.88 "Hg10 mi
4:52 am76 °FPassing clouds.No wind91%29.86 "Hg10 mi
Weather by CustomWeather, © 2019

See weather overview